Volver al catálogo

STARLINK-32141

ActivoComunicacionesVLEO
NORAD 60290·PAYLOAD·🇺🇸 United States

Lanzado Jul 28, 2024 desde Cape Canaveral Space Force Station

Loading…

Próximos Pases (próximas 24 horas)

TLE

ActualizadoSource: CelesTrak SupGP

Época: Sep 14, 2026, 22:08 UTC

1 60290C 24132N   26257.92270833  .00039432  00000+0  11650-2 0  2577
2 60290  53.1570 251.7360 0001362  96.7267  30.1361 15.34370884    11

Sigue STARLINK-32141 en tiempo real con AllMySat

Download on the App Store